Location: Vale
(35.4830°N, 81.3830°W)
Time: 22:30:44
(UTC-04:00)

SR - All Passes

Search period start: 24 July 2016 00:00
Search period end: 03 August 2016 00:00
Orbit: 584 x 874 km, 66.7° (Epoch: 23 July)

Date Brightness Start Highest point End Pass type
(mag) Time Alt. Az. Time Alt. Az. Time Alt. Az.
24 Jul - 01:51:50 10° SSW 01:56:54 80° ESE 02:01:34 10° NNE visible
24 Jul - 03:37:48 10° WNW 03:39:23 11° NW 03:40:57 10° NNW visible
24 Jul - 10:36:14 10° N 10:39:44 24° NE 10:43:18 10° ESE daylight
24 Jul - 12:18:04 10° NW 12:21:40 26° WSW 12:25:23 10° SSW daylight
25 Jul - 01:03:06 10° S 01:07:42 35° ESE 01:11:58 10° NE visible
25 Jul - 02:45:52 10° WSW 02:49:46 23° NW 02:53:27 10° N visible
25 Jul - 09:48:37 10° NNE 09:50:07 12° NE 09:51:36 10° ENE daylight
25 Jul - 11:28:17 10° NNW 11:32:31 64° WSW 11:36:56 10° SSE daylight
26 Jul - 00:15:36 10° SE 00:18:35 16° ESE 00:21:28 10° ENE visible
26 Jul - 01:55:30 10° SW 02:00:19 48° WNW 02:04:48 10° NNE visible
26 Jul - 10:39:04 10° NNW 10:43:15 52° ENE 10:47:34 10° SE daylight
26 Jul - 12:23:19 10° W 12:24:49 12° WSW 12:26:21 10° SW daylight
27 Jul - 01:06:00 10° SSW 01:11:01 76° ESE 01:15:39 10° NNE visible
27 Jul - 02:51:41 10° WNW 02:53:28 12° NW 02:55:13 10° NNW visible
27 Jul - 09:50:23 10° N 09:53:49 23° NE 09:57:20 10° ESE daylight
27 Jul - 11:32:07 10° NW 11:35:47 28° WSW 11:39:35 10° S daylight
28 Jul - 00:17:20 10° S 00:21:49 33° ESE 00:26:01 10° NE visible
28 Jul - 01:59:56 10° WSW 02:03:51 24° NW 02:07:35 10° N visible
28 Jul - 09:02:57 10° NNE 09:04:11 11° NE 09:05:26 10° ENE daylight
28 Jul - 10:42:21 10° NNW 10:46:37 68° WSW 10:51:04 10° SSE daylight
28 Jul - 23:29:56 10° SE 23:32:44 15° ESE 23:35:25 10° ENE visible
29 Jul - 01:09:37 10° SW 01:14:26 50° WNW 01:18:54 10° NNE visible
29 Jul - 09:53:11 10° NNW 09:57:20 49° ENE 10:01:40 10° SE daylight
29 Jul - 11:37:08 10° W 11:38:56 12° WSW 11:40:47 10° SW daylight
30 Jul - 00:20:09 10° SSW 00:25:08 73° ESE 00:29:44 10° NNE visible
30 Jul - 02:05:36 10° WNW 02:07:34 12° NW 02:09:28 10° NNW visible
30 Jul - 09:04:31 10° N 09:07:54 22° NE 09:11:22 10° ESE daylight
30 Jul - 10:46:09 10° NW 10:49:54 29° WSW 10:53:48 10° S daylight
30 Jul - 23:31:33 10° S 23:35:56 31° ESE 23:40:03 10° NE visible
31 Jul - 01:13:58 10° WSW 01:17:57 25° NW 01:21:43 10° N visible
31 Jul - 08:17:22 10° NE 08:18:16 11° NE 08:19:11 10° ENE daylight
31 Jul - 09:56:27 10° NNW 10:00:43 72° WSW 10:05:12 10° SSE daylight
31 Jul - 22:44:18 10° SE 22:46:51 14° ESE 22:49:20 10° ENE visible
01 Aug - 00:23:43 10° SW 00:28:32 53° WNW 00:33:00 10° NNE visible
01 Aug - 09:07:17 10° NNW 09:11:26 46° ENE 09:15:45 10° SE daylight
01 Aug - 10:51:00 10° WNW 10:53:04 13° WSW 10:55:11 10° SW daylight
01 Aug - 23:34:19 10° SSW 23:39:15 69° ESE 23:43:48 10° NNE visible
02 Aug - 01:19:32 10° WNW 01:21:38 13° NW 01:23:42 10° NNW visible
02 Aug - 08:18:40 10° N 08:21:59 21° NE 08:25:23 10° ESE daylight
02 Aug - 10:00:11 10° NW 10:04:00 31° WSW 10:07:59 10° S daylight
02 Aug - 22:45:46 10° S 22:50:03 30° ESE 22:54:05 10° NE visible
